When you browse on this site, cookies collect data to enhance your experience and personalize the content and advertising you see.
Visit our Privacy Policy to learn more. By continuing to use the site, you agree to this use of cookies and data.

Hourly Weather Córdoba

Today, 7 July, Tuesday

Time Temperature Precipitation Wind Pressure Humidity
00:00 +8°C° 0 mm 1 mps 728 mmHg 50%
01:00 +8°C° 0 mm 1 mps 728 mmHg 51%
02:00 +8°C° 0 mm 1 mps 728 mmHg 53%
03:00 +7°C° 0 mm 1 mps 728 mmHg 56%
04:00 +6°C° 0 mm 0 mps 727 mmHg 59%
05:00 +5°C° 0 mm 0 mps 727 mmHg 63%
06:00 +5°C° 0 mm 0 mps 727 mmHg 63%
07:00 +5°C° 0 mm 0 mps 727 mmHg 64%
08:00 +6°C° 0 mm 1 mps 727 mmHg 64%
09:00 +7°C° 0 mm 1 mps 727 mmHg 61%
10:00 +8°C° 0 mm 1 mps 728 mmHg 58%
11:00 +9°C° 0 mm 1 mps 728 mmHg 54%
12:00 +9°C° 0 mm 2 mps 727 mmHg 54%
13:00 +9°C° 0 mm 2 mps 727 mmHg 53%
14:00 +10°C° 0 mm 2 mps 727 mmHg 52%
15:00 +9°C° 0 mm 2 mps 726 mmHg 55%
16:00 +9°C° 0 mm 2 mps 726 mmHg 57%
17:00 +9°C° 0 mm 2 mps 726 mmHg 59%
18:00 +7°C° 0 mm 2 mps 727 mmHg 65%
19:00 +7°C° 0 mm 1 mps 727 mmHg 71%
20:00 +6°C° 0 mm 1 mps 728 mmHg 77%
21:00 +6°C° 0 mm 1 mps 728 mmHg 80%
22:00 +5°C° 0 mm 1 mps 728 mmHg 82%
23:00 +5°C° 0 mm 1 mps 728 mmHg 84%

Tomorrow, 8 July, Wednesday

Time Temperature Precipitation Wind Pressure Humidity
00:00 +4°C° 0 mm 2 mps 727 mmHg 84%
01:00 +4°C° 0 mm 2 mps 727 mmHg 84%
02:00 +3°C° 0 mm 2 mps 726 mmHg 84%
03:00 +3°C° 0 mm 2 mps 726 mmHg 84%
04:00 +3°C° 0 mm 2 mps 726 mmHg 84%
05:00 +4°C° 0 mm 1 mps 725 mmHg 83%
06:00 +4°C° 0 mm 1 mps 725 mmHg 82%
07:00 +3°C° 0 mm 2 mps 725 mmHg 81%
08:00 +3°C° 0 mm 2 mps 725 mmHg 80%
09:00 +6°C° 0 mm 2 mps 725 mmHg 71%
10:00 +8°C° 0 mm 3 mps 725 mmHg 62%
11:00 +10°C° 0 mm 4 mps 725 mmHg 53%
12:00 +11°C° 0 mm 3 mps 725 mmHg 50%
13:00 +12°C° 0 mm 3 mps 725 mmHg 48%
14:00 +13°C° 0 mm 3 mps 724 mmHg 45%
15:00 +12°C° 0 mm 3 mps 725 mmHg 48%
16:00 +12°C° 0 mm 2 mps 725 mmHg 52%
17:00 +12°C° 0 mm 2 mps 725 mmHg 55%
18:00 +10°C° 0 mm 1 mps 726 mmHg 62%
19:00 +9°C° 0 mm 1 mps 726 mmHg 68%
20:00 +7°C° 0 mm 1 mps 727 mmHg 74%
21:00 +7°C° 0 mm 1 mps 727 mmHg 75%
22:00 +7°C° 0 mm 1 mps 728 mmHg 77%
23:00 +7°C° 0 mm 1 mps 728 mmHg 78%

Day after tomorrow, 9 July, Thursday

Time Temperature Precipitation Wind Pressure Humidity
00:00 +7°C° 0 mm 1 mps 728 mmHg 78%
01:00 +6°C° 0 mm 1 mps 728 mmHg 77%
02:00 +6°C° 0 mm 1 mps 728 mmHg 77%
03:00 +6°C° 0 mm 1 mps 728 mmHg 76%
04:00 +6°C° 0 mm 1 mps 728 mmHg 75%
05:00 +6°C° 0 mm 1 mps 728 mmHg 74%
06:00 +6°C° 0 mm 1 mps 729 mmHg 72%
07:00 +7°C° 0 mm 1 mps 729 mmHg 70%
08:00 +7°C° 0 mm 1 mps 729 mmHg 68%
09:00 +9°C° 0 mm 1 mps 729 mmHg 60%
10:00 +10°C° 0 mm 2 mps 729 mmHg 52%
11:00 +13°C° 0 mm 2 mps 729 mmHg 44%
12:00 +13°C° 0 mm 3 mps 729 mmHg 41%
13:00 +14°C° 0 mm 4 mps 728 mmHg 38%
14:00 +15°C° 0 mm 5 mps 727 mmHg 34%
15:00 +14°C° 0 mm 5 mps 727 mmHg 38%
16:00 +13°C° 0 mm 5 mps 726 mmHg 41%
17:00 +13°C° 0 mm 5 mps 726 mmHg 44%
18:00 +12°C° 0 mm 5 mps 725 mmHg 49%
19:00 +9°C° 0 mm 5 mps 725 mmHg 54%
20:00 +8°C° 0 mm 5 mps 725 mmHg 59%
21:00 +8°C° 0 mm 4 mps 725 mmHg 61%
22:00 +8°C° 0 mm 4 mps 725 mmHg 64%
23:00 +7°C° 0 mm 4 mps 725 mmHg 66%

10 July, Friday

Time Temperature Precipitation Wind Pressure Humidity
00:00 +7°C° 0 mm 4 mps 725 mmHg 68%
01:00 +7°C° 0 mm 4 mps 724 mmHg 70%
02:00 +7°C° 0 mm 4 mps 724 mmHg 72%
03:00 +8°C° 0 mm 3 mps 724 mmHg 74%
04:00 +7°C° 0 mm 3 mps 724 mmHg 76%
05:00 +7°C° 0 mm 2 mps 723 mmHg 78%
06:00 +7°C° 0 mm 2 mps 724 mmHg 78%
07:00 +7°C° 0 mm 2 mps 724 mmHg 77%
08:00 +8°C° 0 mm 1 mps 724 mmHg 77%
09:00 +11°C° 0 mm 1 mps 725 mmHg 67%
10:00 +13°C° 0 mm 1 mps 725 mmHg 57%
11:00 +16°C° 0 mm 1 mps 725 mmHg 47%
12:00 +18°C° 0 mm 1 mps 725 mmHg 42%
13:00 +18°C° 0 mm 2 mps 724 mmHg 38%
14:00 +19°C° 0 mm 3 mps 724 mmHg 33%
15:00 +18°C° 0 mm 2 mps 724 mmHg 36%
16:00 +17°C° 0 mm 2 mps 723 mmHg 38%
17:00 +16°C° 0 mm 2 mps 723 mmHg 40%
18:00 +14°C° 0 mm 1 mps 723 mmHg 46%
19:00 +13°C° 0 mm 1 mps 723 mmHg 51%
20:00 +10°C° 0 mm 0 mps 724 mmHg 57%
21:00 +10°C° 0 mm 0 mps 723 mmHg 59%
22:00 +11°C° 0 mm 1 mps 723 mmHg 61%
23:00 +10°C° 0 mm 1 mps 723 mmHg 63%

11 July, Saturday

Time Temperature Precipitation Wind Pressure Humidity
00:00 +9°C° 0 mm 2 mps 722 mmHg 68%
01:00 +9°C° 0 mm 2 mps 722 mmHg 72%
02:00 +9°C° 0 mm 2 mps 722 mmHg 77%
03:00 +9°C° 0 mm 2 mps 721 mmHg 79%
04:00 +9°C° 0 mm 2 mps 720 mmHg 81%
05:00 +9°C° 0 mm 2 mps 719 mmHg 83%
06:00 +9°C° 0 mm 2 mps 720 mmHg 82%
07:00 +10°C° 0 mm 2 mps 720 mmHg 81%
08:00 +10°C° 0 mm 2 mps 720 mmHg 80%
09:00 +14°C° 0 mm 2 mps 719 mmHg 71%
10:00 +16°C° 0 mm 2 mps 719 mmHg 62%
11:00 +19°C° 0 mm 3 mps 719 mmHg 53%
12:00 +20°C° 0 mm 2 mps 719 mmHg 48%
13:00 +21°C° 0 mm 2 mps 718 mmHg 44%
14:00 +24°C° 0 mm 2 mps 717 mmHg 39%
15:00 +23°C° 0 mm 2 mps 717 mmHg 42%
16:00 +21°C° 0 mm 2 mps 717 mmHg 45%
17:00 +20°C° 0 mm 2 mps 717 mmHg 48%
18:00 +18°C° 0 mm 2 mps 718 mmHg 54%
19:00 +16°C° 0 mm 2 mps 719 mmHg 60%
20:00 +13°C° 0 mm 3 mps 719 mmHg 67%
21:00 +13°C° 0 mm 3 mps 720 mmHg 65%
22:00 +13°C° 0 mm 3 mps 721 mmHg 63%
23:00 +12°C° 0 mm 4 mps 722 mmHg 61%

12 July, Sunday

Time Temperature Precipitation Wind Pressure Humidity
00:00 +12°C° 0 mm 4 mps 722 mmHg 62%
01:00 +12°C° 0 mm 4 mps 723 mmHg 64%
02:00 +11°C° 0 mm 4 mps 723 mmHg 66%
03:00 +10°C° 0 mm 5 mps 724 mmHg 65%
04:00 +10°C° 0 mm 5 mps 724 mmHg 64%
05:00 +10°C° 0 mm 5 mps 724 mmHg 63%
06:00 +10°C° 0 mm 4 mps 725 mmHg 57%
07:00 +10°C° 0 mm 3 mps 725 mmHg 52%
08:00 +10°C° 0 mm 2 mps 726 mmHg 47%
09:00 +12°C° 0 mm 2 mps 726 mmHg 40%
10:00 +12°C° 0 mm 2 mps 726 mmHg 33%
11:00 +13°C° 0 mm 2 mps 726 mmHg 26%
12:00 +14°C° 0 mm 2 mps 726 mmHg 26%
13:00 +14°C° 0 mm 3 mps 725 mmHg 25%
14:00 +14°C° 0 mm 3 mps 725 mmHg 25%
15:00 +14°C° 0 mm 3 mps 724 mmHg 26%
16:00 +14°C° 0 mm 3 mps 724 mmHg 28%
17:00 +13°C° 0 mm 3 mps 724 mmHg 30%
18:00 +12°C° 0 mm 3 mps 724 mmHg 32%
19:00 +10°C° 0 mm 2 mps 724 mmHg 35%
20:00 +9°C° 0 mm 2 mps 724 mmHg 38%
21:00 +9°C° 0 mm 2 mps 725 mmHg 39%
22:00 +8°C° 0 mm 2 mps 725 mmHg 39%
23:00 +8°C° 0 mm 2 mps 725 mmHg 40%
Show more